Date,TemperatureHighF,TemperatureAvgF,TemperatureLowF,DewpointHighF,DewpointAvgF,DewpointLowF,HumidityHigh,HumidityAvg,HumidityLow,PressureMaxIn,PressureMinIn,WindSpeedMaxMPH,WindSpeedAvgMPH,GustSpeedMaxMPH,PrecipitationSumIn
2013-1-1,28.4,12.0,-2.9,27.7,8.5,-7.5,97,85,80,29.90,29.67,14,2,14,0.00
2013-1-2,16.5,3.4,-13.4,12.5,-1.6,-18.8,84,79,77,30.11,29.81,10,2,10,0.00
2013-1-3,21.4,0.5,-20.0,18.1,-4.8,-25.0,87,78,71,30.11,29.84,6,1,6,0.00
2013-1-4,27.9,25.7,21.2,25.4,22.8,17.9,91,89,84,29.84,29.72,17,4,17,0.00
2013-1-5,29.5,22.5,11.1,24.5,12.6,0.0,88,66,46,30.17,29.78,15,3,15,0.00
2013-1-6,32.4,26.0,15.8,29.6,22.5,9.9,92,86,77,30.11,29.84,3,3,3,0.00
2013-1-7,31.5,20.1,11.1,29.4,13.7,5.1,92,77,52,30.26,29.90,3,3,3,0.00
2013-1-8,35.1,22.3,10.4,25.6,14.9,5.1,90,74,52,30.32,30.11,3,3,3,0.00
2013-1-9,38.8,23.4,4.5,33.4,16.9,-0.1,90,76,59,30.29,29.90,3,3,3,0.04
2013-1-10,37.0,28.3,15.8,27.5,17.5,10.2,81,64,44,30.49,30.08,0,0,0,0.00
2013-1-11,36.9,26.0,12.9,30.8,19.8,7.9,92,78,41,30.46,30.02,0,0,0,0.00
2013-1-12,44.1,35.2,32.2,42.7,34.1,30.8,98,96,90,30.08,30.02,0,0,0,0.08
2013-1-13,56.7,38.4,32.2,55.9,37.5,31.7,98,96,81,30.08,29.84,0,0,0,0.04
2013-1-14,50.2,34.8,27.7,49.6,26.6,13.3,98,74,50,30.02,29.81,0,0,0,0.00
2013-1-15,31.6,26.7,24.6,16.4,11.4,6.8,64,52,41,30.29,30.02,0,0,0,0.00
2013-1-16,30.2,27.1,24.4,24.4,19.8,12.7,83,74,60,30.17,29.75,0,0,0,0.00
2013-1-17,30.2,19.1,6.8,24.5,4.1,-15.1,83,54,34,30.08,29.75,0,0,0,0.00
2013-1-18,18.7,7.6,-9.6,2.3,-13.0,-29.8,49,37,35,30.26,28.17,0,0,0,0.00
2013-1-19,41.5,30.9,18.3,21.3,13.5,2.7,71,49,39,28.17,27.76,13,2,13,0.00
2013-1-20,41.7,27.2,8.1,26.9,12.2,-6.9,83,55,38,27.99,27.52,19,6,19,0.00
2013-1-21,15.4,9.2,-1.8,-0.6,-5.9,-15.9,50,49,47,28.02,27.79,7,1,7,0.00
2013-1-22,12.2,6.0,-1.8,-3.3,-9.0,-16.3,49,49,49,28.05,27.79,8,2,8,0.00
2013-1-23,1.6,-11.2,-22.9,-13.3,-25.0,-35.9,49,49,49,30.16,28.05,8,1,8,0.00
2013-1-24,6.1,-10.8,-25.6,-9.0,-24.7,-38.4,49,49,49,30.40,30.16,8,1,8,0.00
2013-1-25,11.8,-2.1,-18.2,-3.6,-16.6,-31.6,49,49,49,30.42,30.10,5,0,5,0.00
2013-1-26,12.2,2.6,-11.0,-3.3,-12.2,-24.9,49,49,49,30.31,30.10,10,1,10,0.00
2013-1-27,21.2,6.8,-6.9,2.0,-11.6,-21.0,54,42,34,30.51,30.31,0,0,0,0.00
2013-1-28,22.1,16.3,7.7,18.1,3.7,-14.2,85,60,35,30.48,30.04,0,0,0,0.00
2013-1-29,34.0,28.0,21.9,32.7,25.8,18.1,97,91,85,30.19,30.01,0,0,0,0.00
2013-1-30,58.1,44.6,32.5,54.8,42.8,32.0,98,94,68,30.01,29.42,0,0,0,0.71
2013-1-31,50.4,30.1,16.0,49.3,24.7,6.5,97,80,57,29.66,29.07,0,0,0,1.06
2013-2-1,16.0,12.0,7.2,7.8,-0.9,-8.6,70,56,47,30.10,29.66,0,0,0,0.00
2013-2-2,16.2,11.8,2.5,3.0,-1.5,-10.0,61,54,48,30.19,30.07,0,0,0,0.00
2013-2-3,22.5,8.6,-8.7,10.1,-4.3,-20.5,74,55,43,30.07,29.80,0,0,0,0.00
2013-2-4,18.5,10.7,-0.9,8.5,-4.7,-20.9,74,52,35,29.98,29.83,0,0,0,0.00
2013-2-5,22.5,7.8,-10.1,2.6,-11.3,-29.2,58,41,36,30.04,29.92,6,0,6,0.00
2013-2-6,24.4,16.3,1.4,16.7,3.9,-13.7,77,58,43,30.34,29.92,11,2,11,0.00
2013-2-7,22.1,9.6,-4.9,2.4,-7.5,-19.6,48,45,39,30.48,30.34,10,1,10,0.00
2013-2-8,23.9,19.5,15.3,16.9,12.1,-1.6,85,73,44,30.40,29.95,16,4,16,0.00
2013-2-9,17.6,8.4,-9.8,13.4,-2.2,-25.5,84,64,43,30.42,29.98,14,3,14,0.00
2013-2-10,37.8,6.7,-16.8,11.7,-9.2,-31.8,64,48,30,30.48,30.25,4,0,4,0.00
2013-2-11,36.3,28.9,10.8,33.4,20.1,1.0,89,70,44,30.25,29.72,12,1,12,0.12
2013-2-12,31.3,28.8,25.3,28.5,24.2,18.7,91,83,75,29.98,29.72,13,4,13,0.00
2013-2-13,32.5,27.3,19.9,26.1,18.7,13.1,84,71,50,29.95,29.83,6,1,6,0.00
2013-2-14,36.3,25.6,16.5,24.7,16.8,11.4,88,71,42,30.01,29.86,6,1,6,0.00
2013-2-15,36.3,31.0,24.8,31.0,22.1,13.6,92,71,50,30.07,29.98,14,4,14,0.00
2013-2-16,25.9,18.6,7.7,13.6,4.3,-8.9,74,54,37,30.07,29.98,9,1,9,0.00
2013-2-17,14.4,5.8,-0.9,-3.5,-11.3,-16.7,46,44,42,30.01,29.83,10,2,10,0.00
2013-2-18,21.7,6.6,-3.8,-2.8,-13.7,-21.1,42,38,33,30.25,30.01,10,2,10,0.00
2013-2-19,41.7,22.3,2.5,27.0,7.3,-18.9,89,55,35,30.19,29.75,11,1,11,0.00
2013-2-20,25.7,20.2,13.5,20.7,9.4,2.7,81,63,43,29.92,29.75,13,4,13,0.00
2013-2-21,13.8,9.6,2.1,5.2,-2.5,-6.0,68,58,47,30.45,29.92,9,2,9,0.00
2013-2-22,34.3,21.4,1.6,26.9,7.9,-4.0,80,58,42,30.48,30.25,8,1,8,0.00
2013-2-23,35.4,31.1,28.4,29.5,23.6,14.2,90,74,54,30.25,29.95,9,1,9,0.04
2013-2-24,32.9,29.8,26.6,31.9,25.9,20.9,96,86,73,30.07,29.92,6,0,6,0.04
2013-2-25,35.2,29.1,20.3,28.6,23.0,15.5,89,78,63,30.31,30.07,8,0,8,0.04
2013-2-26,39.2,29.2,13.6,34.9,18.7,10.0,91,67,43,30.37,30.10,35,1,35,0.08
2013-2-27,36.9,32.8,29.1,33.4,27.5,17.2,93,81,55,30.10,29.69,20,5,20,0.08
2013-2-28,38.7,33.3,30.2,31.9,25.9,20.0,92,75,49,29.75,29.66,8,1,8,0.08
2013-3-1,32.7,28.1,23.4,26.8,23.0,20.1,88,81,64,29.92,29.75,8,2,8,0.08
2013-3-2,23.4,19.8,15.4,20.1,14.7,9.3,87,81,74,29.92,29.86,8,1,8,0.08
2013-3-3,25.9,18.6,12.2,16.2,10.3,6.7,83,70,55,29.86,29.69,5,1,5,0.08
2013-3-4,24.1,19.5,15.8,14.8,12.0,9.7,84,73,57,29.90,29.72,6,2,6,0.08
2013-3-5,37.9,25.9,18.3,21.6,16.5,12.6,83,69,44,30.04,29.90,6,1,6,0.12
2013-3-6,37.8,29.6,16.7,29.2,18.7,11.6,90,65,46,30.13,30.01,13,2,13,0.00
2013-3-7,32.4,28.3,23.9,20.0,16.4,12.7,82,62,44,30.16,30.10,10,2,10,0.08
2013-3-8,39.0,27.9,16.9,20.4,16.3,8.6,86,64,40,30.31,30.13,11,3,11,0.08
2013-3-9,53.4,26.9,6.6,34.4,11.6,-0.2,82,56,26,30.34,30.25,8,0,8,0.00
2013-3-10,55.4,35.4,18.1,27.3,17.9,11.3,83,54,25,30.28,30.13,8,1,8,0.00
2013-3-11,53.6,42.3,32.0,30.8,24.1,19.6,77,51,30,30.13,29.93,8,1,8,0.00
2013-3-12,48.9,40.0,32.5,43.8,36.5,31.0,95,88,61,29.93,29.78,12,3,12,1.06
2013-3-13,39.0,31.5,24.4,31.3,24.3,14.6,94,76,45,29.87,29.78,10,1,10,0.16
2013-3-14,24.8,17.3,13.5,17.4,5.2,-3.6,75,59,44,29.90,29.75,12,4,12,0.00
2013-3-15,32.0,18.9,1.6,23.9,9.0,-7.8,80,65,48,29.90,29.57,11,2,11,0.00
2013-3-16,28.0,17.6,4.5,12.5,3.8,-11.7,77,56,38,29.90,29.75,8,1,8,0.00
2013-3-17,26.6,12.0,-1.5,4.4,-7.9,-20.4,65,40,32,30.28,29.87,15,2,15,0.00
2013-3-18,35.2,15.2,-8.1,11.0,-8.0,-28.5,56,35,30,30.34,29.96,10,1,10,0.00
2013-3-19,32.0,26.5,22.8,28.3,22.4,11.0,91,84,56,29.96,29.69,14,3,14,0.00
2013-3-20,32.5,23.3,14.2,24.0,15.8,7.1,89,74,53,29.75,29.66,12,2,12,0.00
2013-3-21,31.1,21.7,9.0,16.4,8.2,-2.7,79,57,40,29.72,29.63,9,2,9,0.00
2013-3-22,30.0,20.6,8.8,18.5,9.5,-3.7,78,62,48,29.75,29.63,8,1,8,0.00
2013-3-23,33.3,26.9,22.6,20.3,15.5,9.9,83,64,42,29.87,29.72,10,2,10,0.00
2013-3-24,35.2,28.8,18.3,19.4,14.2,8.9,69,55,43,29.90,29.78,9,2,9,0.00
2013-3-25,40.8,27.5,12.6,24.5,14.0,6.7,83,59,39,29.78,29.60,8,1,8,0.04
2013-3-26,41.5,31.9,22.8,22.1,14.7,7.8,71,50,33,29.84,29.63,8,2,8,0.00
2013-3-27,46.4,34.5,22.8,25.9,19.1,10.3,73,54,36,29.93,29.81,8,1,8,0.00
2013-3-28,43.3,34.3,27.9,31.5,25.6,18.3,85,71,53,30.01,29.93,8,1,8,0.00
2013-3-29,41.9,35.0,27.9,35.8,26.2,19.8,91,72,46,30.10,30.01,4,1,4,0.04
2013-3-30,47.5,33.2,19.9,31.8,16.6,8.8,92,57,27,30.13,30.07,126,1,126,0.00
2013-3-31,50.7,35.0,19.0,32.2,20.9,12.1,82,60,29,30.10,29.69,14,3,14,0.00
2013-4-1,38.3,32.5,21.7,36.5,21.3,2.7,93,66,34,29.81,29.57,23,4,23,0.20
2013-4-2,26.2,22.0,17.6,12.3,5.6,1.6,62,49,42,29.93,29.78,13,4,13,0.00
2013-4-3,33.1,25.0,17.6,8.6,5.5,2.9,60,44,31,30.22,29.93,13,4,13,0.00
2013-4-4,46.2,30.4,13.1,16.8,11.5,4.5,76,48,28,30.25,29.93,13,3,13,0.00
2013-4-5,41.0,31.2,25.0,22.5,15.9,5.3,70,54,40,30.01,29.84,15,2,15,0.00
2013-4-6,37.9,27.3,17.8,9.4,4.8,-0.2,56,39,27,30.25,30.01,14,2,14,0.00
2013-4-7,56.3,44.4,29.3,32.4,21.6,9.2,62,41,29,30.19,29.81,18,4,18,0.00
2013-4-8,55.9,42.3,35.6,38.0,26.1,21.6,86,55,28,30.13,29.93,8,1,8,0.00
2013-4-9,49.1,40.6,35.8,48.6,37.2,31.4,98,88,68,30.07,29.81,13,2,13,0.31
2013-4-10,46.0,39.1,35.1,45.5,38.2,33.8,98,97,91,30.04,29.93,4,0,4,0.67
2013-4-11,36.3,33.0,30.0,35.8,23.7,13.2,98,71,44,30.13,29.96,3,0,3,0.00
2013-4-12,34.3,32.2,29.7,32.1,25.7,10.8,95,79,41,30.10,29.72,21,3,21,0.04
2013-4-13,40.6,35.5,33.1,39.3,34.2,31.5,98,95,88,29.84,29.78,8,2,8,0.35
2013-4-14,39.7,34.2,26.4,33.1,26.2,17.7,96,74,47,30.22,29.84,8,2,8,0.16
2013-4-15,59.4,40.7,23.4,32.4,26.0,19.7,92,61,33,30.31,30.19,114,2,114,0.00
2013-4-16,53.6,47.8,36.7,51.7,41.3,27.1,96,80,53,30.22,29.98,12,4,12,0.31
2013-4-17,52.5,39.7,28.6,38.3,26.8,20.2,98,65,32,30.34,30.16,13,2,13,0.00
2013-4-18,62.4,46.6,28.6,43.8,30.6,21.6,87,57,35,30.34,29.96,33,3,33,0.00
2013-4-19,67.3,57.1,37.4,52.6,45.8,31.8,87,68,45,29.96,29.54,15,6,15,0.55
2013-4-20,41.4,35.1,26.1,31.8,20.1,10.7,80,55,39,30.28,29.75,12,5,12,0.00
2013-4-21,43.3,31.1,22.1,14.9,10.8,6.8,66,44,28,30.63,30.28,10,2,10,0.00
2013-4-22,53.8,37.9,21.2,25.8,16.3,10.7,78,45,26,30.63,30.46,13,2,13,0.00
2013-4-23,57.6,42.0,27.0,34.6,22.8,14.9,80,49,26,30.46,30.10,13,2,13,0.00
2013-4-24,72.0,50.1,29.5,43.3,34.0,26.9,95,61,23,30.10,29.72,15,2,15,0.00
2013-4-25,49.5,39.5,29.7,22.6,19.4,18.2,74,47,30,30.28,30.16,8,0,8,0.00
2013-4-26,48.0,38.5,28.0,36.8,25.0,18.0,87,61,37,30.46,30.25,8,1,8,0.12
2013-4-27,55.6,39.5,23.9,35.5,24.7,19.8,90,60,27,30.46,30.34,6,0,6,0.00
2013-4-28,70.9,49.4,28.0,44.0,30.6,24.5,96,56,24,30.34,30.13,7,1,7,0.00
2013-4-29,57.6,49.8,43.7,41.9,37.4,34.0,77,63,43,30.19,30.13,11,2,11,0.00
2013-4-30,67.6,54.8,43.9,48.2,40.8,35.3,86,63,34,30.31,30.19,11,2,11,0.00
2013-5-1,75.4,56.6,36.1,53.4,36.6,29.1,96,56,22,30.43,30.31,9,1,9,0.00
2013-5-2,79.5,60.3,37.0,49.2,34.4,31.4,89,44,20,30.46,30.34,6,1,6,0.00
2013-5-3,71.8,60.4,47.8,39.3,29.3,22.6,56,32,22,30.46,30.34,5,2,5,0.00
2013-5-4,75.2,56.1,35.1,47.4,31.8,25.6,85,44,22,30.37,30.22,5,1,5,0.00
2013-5-5,78.6,58.0,36.7,50.2,32.9,26.8,91,45,20,30.28,30.13,8,1,8,0.00
2013-5-6,78.1,58.0,36.1,43.8,28.7,22.0,86,39,15,30.25,30.07,8,1,8,0.00
2013-5-7,80.1,58.5,36.5,44.7,34.7,23.5,83,45,21,30.19,30.07,8,1,8,0.00
2013-5-8,73.2,58.2,41.0,56.7,45.4,34.7,94,66,33,30.16,30.04,11,1,11,0.16
2013-5-9,73.2,58.9,47.3,58.5,48.1,37.8,97,72,31,30.04,29.93,65,1,65,0.04
2013-5-10,73.4,59.6,47.3,61.4,49.1,39.9,98,73,33,30.04,29.87,8,2,8,0.04
2013-5-11,62.4,55.8,45.3,60.7,50.3,38.9,95,82,63,29.87,29.72,8,3,8,0.35
2013-5-12,50.9,43.9,34.2,43.7,30.5,19.8,92,63,30,29.81,29.69,15,4,15,0.35
2013-5-13,43.0,36.8,30.2,30.8,23.4,18.7,86,59,41,30.07,29.81,18,4,18,0.04
2013-5-14,53.6,39.0,26.2,36.0,22.2,17.7,90,56,28,30.10,30.01,9,1,9,0.04
2013-5-15,59.7,45.1,26.2,50.8,32.0,20.1,93,63,35,30.04,29.63,10,2,12,0.08
2013-5-16,69.1,56.3,40.6,45.9,31.9,27.7,82,43,23,29.96,29.72,19,4,19,0.00
2013-5-17,63.1,50.8,37.9,39.8,30.3,25.3,73,48,27,30.28,29.96,12,2,12,0.00
2013-5-18,71.4,53.5,31.6,53.5,32.0,27.4,94,51,22,30.34,30.22,8,1,8,0.00
2013-5-19,65.1,52.6,37.9,53.8,43.6,0.0,94,74,40,30.28,30.13,10,1,10,0.00
2013-5-20,71.1,61.3,55.0,65.8,57.0,53.1,94,87,60,30.13,30.01,6,1,6,0.08
2013-5-21,80.1,66.0,53.6,68.6,56.2,51.0,97,75,39,30.04,29.84,13,1,13,0.63
2013-5-22,80.4,69.1,58.3,70.3,58.6,51.7,97,73,38,29.90,29.81,13,2,13,0.39
2013-5-23,73.4,63.4,58.8,64.9,59.4,53.3,96,87,50,29.87,29.81,12,2,13,0.79
2013-5-24,58.6,43.6,39.0,57.5,42.8,37.7,98,97,94,30.10,29.78,13,2,13,0.87
2013-5-25,40.3,39.2,37.6,39.5,38.2,36.0,98,96,93,30.07,30.01,10,3,10,1.18
2013-5-26,53.1,42.3,35.4,42.0,36.5,26.5,98,83,37,30.13,29.96,18,3,18,0.24
2013-5-27,64.4,48.4,32.0,48.6,30.0,23.5,97,57,25,30.22,30.13,11,2,11,0.00
2013-5-28,72.9,54.9,33.6,51.2,34.1,29.4,95,53,24,30.25,30.10,9,1,9,0.00
2013-5-29,72.3,62.2,54.9,66.3,58.3,44.3,96,87,62,30.10,30.01,11,1,11,0.16
2013-5-30,82.9,69.8,56.3,69.4,56.9,49.0,96,69,32,30.16,30.07,9,2,9,0.00
2013-5-31,87.6,71.4,54.9,70.6,53.5,43.2,97,62,23,30.19,30.04,15,2,15,0.00
2013-6-1,84.6,71.1,56.1,68.1,56.8,50.1,96,66,34,30.04,29.90,13,3,232,0.47
2013-6-2,77.5,67.2,59.4,69.8,59.2,51.0,97,77,45,29.96,29.78,12,3,12,0.63
2013-6-3,62.8,55.6,43.0,56.4,40.9,29.5,91,60,35,29.98,29.87,10,3,10,0.00
2013-6-4,64.4,51.9,40.8,44.8,35.3,29.1,87,57,32,30.19,29.98,17,2,17,0.00
2013-6-5,70.3,53.9,36.7,54.0,35.2,28.8,96,56,24,30.25,30.16,9,1,9,0.00
2013-6-6,61.7,54.1,45.9,54.8,46.1,37.0,95,76,44,30.19,30.04,6,1,6,0.39
2013-6-7,57.2,53.2,50.7,54.1,51.6,49.3,97,94,84,30.04,29.90,8,2,8,0.79
2013-6-8,64.6,56.6,51.3,60.0,53.3,50.7,98,90,69,30.10,29.84,10,1,10,0.12
2013-6-9,71.4,60.5,49.8,56.0,48.6,39.4,93,69,33,30.25,30.10,10,1,10,0.00
2013-6-10,70.9,57.8,45.1,61.4,50.4,43.8,97,80,39,30.28,29.93,13,2,13,0.43
2013-6-11,62.6,57.6,53.4,61.0,56.4,52.8,98,96,94,29.93,29.66,11,1,11,1.65
2013-6-12,68.4,57.4,49.5,54.2,48.2,40.3,98,75,37,29.93,29.75,13,2,13,0.12
2013-6-13,60.6,53.9,48.2,56.5,50.3,46.5,98,88,68,29.93,29.75,13,1,13,0.12
2013-6-14,70.7,58.2,45.5,58.6,46.3,38.8,98,70,36,29.98,29.81,10,2,10,0.12
2013-6-15,70.5,56.7,38.8,54.7,38.7,33.5,97,58,26,30.04,29.98,11,1,11,0.12
2013-6-16,66.9,57.2,45.7,58.3,49.6,36.0,93,77,51,30.01,29.78,10,1,10,0.12
2013-6-17,70.2,60.7,52.3,62.5,53.5,45.3,97,79,43,30.01,29.87,10,1,10,0.12
2013-6-18,66.9,55.4,44.8,53.0,45.2,34.0,97,74,33,30.07,29.98,10,1,10,0.16
2013-6-19,67.5,52.7,36.7,49.3,34.8,28.3,98,58,25,30.25,30.07,13,1,13,0.00
2013-6-20,74.5,57.4,38.8,56.2,38.7,32.0,96,58,23,30.31,30.25,8,1,8,0.00
2013-6-21,79.3,62.1,42.4,54.6,44.4,40.2,96,59,29,30.34,30.28,8,1,8,0.00
2013-6-22,79.7,66.1,52.0,63.5,54.5,47.7,95,71,35,30.28,30.16,9,1,9,0.00
2013-6-23,82.9,72.4,62.2,73.0,63.2,57.0,97,76,43,30.16,30.10,11,3,11,0.08
2013-6-24,83.1,71.9,63.3,72.8,66.9,61.6,95,85,50,30.10,30.01,6,1,6,0.20
2013-6-25,84.7,70.3,62.4,70.5,64.5,56.5,96,84,41,30.04,29.87,10,1,10,0.28
2013-6-26,77.7,68.4,62.2,72.6,64.1,59.2,97,87,58,29.90,29.87,8,0,8,0.31
2013-6-27,84.4,70.9,60.4,72.4,60.9,49.8,96,76,31,29.93,29.78,5,0,5,0.59
2013-6-28,66.0,62.6,57.2,64.3,60.3,55.5,98,93,78,29.78,29.51,9,1,9,2.83
2013-6-29,74.1,64.2,56.7,66.4,58.9,53.2,98,85,50,29.78,29.60,8,1,8,0.04
2013-6-30,79.3,67.3,57.4,68.1,58.4,53.9,98,77,43,30.01,29.78,6,0,6,0.00
2013-7-1,70.3,65.0,60.3,66.6,62.7,59.7,98,92,78,30.13,30.01,6,1,6,1.77
2013-7-2,80.1,70.1,59.7,74.9,64.8,59.2,98,85,60,30.19,30.13,8,0,8,0.35
2013-7-3,83.1,73.0,64.4,73.8,66.6,58.3,97,83,43,30.25,30.19,9,2,9,0.24
2013-7-4,83.3,77.4,65.5,64.5,63.3,60.3,92,62,49,30.28,30.19,9,1,9,0.04
2013-7-5,78.3,70.7,63.0,76.1,68.7,61.5,96,93,87,30.25,30.16,8,1,8,0.63
2013-7-6,81.5,72.5,0.0,75.1,57.3,0.0,95,62,35,30.19,30.13,9,1,9,0.00
2013-7-7,83.3,70.9,60.4,71.9,61.8,56.1,94,75,43,30.16,30.04,9,0,9,0.00
2013-7-8,81.1,70.8,63.0,75.1,63.7,55.5,94,80,46,30.13,30.04,9,1,9,0.00
2013-7-9,86.2,70.9,61.9,72.5,62.4,52.0,95,78,34,30.16,30.04,10,1,10,0.04
2013-7-10,78.6,71.5,66.2,73.5,67.2,63.8,95,87,66,30.04,29.84,10,2,10,0.31
2013-7-11,74.1,67.7,54.7,66.9,55.6,42.9,94,69,37,30.13,29.87,9,2,9,0.08
2013-7-12,77.7,64.7,52.0,63.4,50.3,43.8,95,65,31,30.28,30.13,8,1,8,0.00
2013-7-13,80.2,66.1,54.3,64.5,57.5,51.5,94,75,46,30.37,30.28,6,0,6,0.00
2013-7-14,81.3,71.2,62.2,74.3,64.9,59.3,94,82,53,30.40,30.34,4,0,4,0.00
2013-7-15,86.5,73.0,61.0,73.9,57.6,47.9,95,65,30,30.37,30.28,7,1,7,0.00
2013-7-16,87.4,73.2,59.4,72.8,57.5,49.8,93,64,29,30.34,30.28,10,1,10,0.00
2013-7-17,89.2,76.0,62.2,72.8,62.0,55.0,93,67,34,30.31,30.13,10,1,10,0.04
2013-7-18,88.3,75.6,66.9,75.6,63.6,53.7,94,71,31,30.16,30.04,6,1,6,0.00
2013-7-19,88.2,76.4,67.3,73.5,65.1,57.3,92,72,38,30.04,29.81,11,3,11,0.28
2013-7-20,72.1,65.9,60.8,65.1,60.4,50.2,93,83,46,29.96,29.78,5,1,5,0.28
2013-7-21,75.4,64.4,53.8,60.5,51.1,40.4,93,67,31,30.10,29.96,8,1,8,0.00
2013-7-22,80.6,65.2,51.1,62.7,54.2,47.0,93,72,37,30.10,29.96,11,0,11,0.91
2013-7-23,81.7,69.5,62.1,71.4,59.9,50.5,93,75,36,29.96,29.69,6,0,6,0.43
2013-7-24,66.0,57.8,44.8,61.7,49.4,38.6,91,75,49,30.13,29.72,10,1,10,0.35
2013-7-25,70.3,56.2,39.9,54.9,40.4,34.2,94,61,30,30.19,30.10,8,1,8,0.00
2013-7-26,73.8,59.6,46.6,60.5,46.6,40.8,93,67,32,30.19,30.10,8,1,8,0.00
2013-7-27,81.3,65.5,50.0,62.2,49.8,44.2,93,63,30,30.13,30.01,7,1,7,0.00
2013-7-28,72.7,66.3,60.1,64.0,59.3,54.2,91,79,61,30.04,29.96,8,1,8,0.16
2013-7-29,72.3,62.6,53.2,63.2,50.3,40.0,94,69,33,30.19,30.01,8,2,8,0.12
2013-7-30,71.6,61.6,53.6,58.7,49.3,41.9,92,67,37,30.22,30.16,9,1,9,0.00
2013-7-31,78.1,63.3,50.4,61.4,49.1,43.2,92,65,31,30.22,30.10,6,1,6,0.00
2013-8-1,72.7,61.7,52.5,64.8,56.5,49.4,93,84,55,30.10,29.90,11,1,11,1.26
2013-8-2,72.7,64.1,57.0,63.1,50.9,40.5,94,67,34,29.96,29.90,8,2,8,0.00
2013-8-3,70.3,61.1,0.0,59.3,49.4,0.0,91,68,38,29.96,29.87,11,1,11,0.59
2013-8-4,68.4,57.8,49.3,58.6,48.4,39.1,93,74,38,30.07,29.96,6,1,6,0.39
2013-8-5,68.4,55.7,41.7,55.6,40.1,32.8,92,61,30,30.13,30.07,8,1,8,0.39
2013-8-6,75.0,58.6,43.9,55.8,44.2,35.9,92,65,26,30.19,30.13,5,0,5,0.39
2013-8-7,73.9,63.2,50.7,63.0,52.2,46.4,92,70,43,30.19,30.04,10,3,10,0.39
2013-8-8,82.4,72.1,66.7,63.3,58.3,52.8,86,64,38,30.10,30.01,8,2,8,0.39
2013-8-9,74.1,68.2,63.5,69.3,64.3,57.6,92,88,74,30.04,29.90,6,0,6,0.91
2013-8-10,69.8,63.7,58.8,58.3,46.5,36.6,89,57,32,30.13,29.96,10,1,10,0.39
2013-8-11,73.2,63.2,53.4,59.2,44.2,38.8,90,52,32,30.16,30.10,8,1,8,0.39
2013-8-12,75.0,62.5,50.9,56.8,47.4,41.0,88,62,32,30.13,29.98,8,1,8,0.39
2013-8-13,72.0,60.8,54.5,65.1,55.4,47.8,92,83,56,29.98,29.78,6,1,6,0.39
2013-8-14,63.3,54.3,46.0,52.3,45.9,39.8,85,74,51,30.07,29.81,10,0,10,0.04
2013-8-15,68.7,54.5,40.1,55.0,40.6,36.3,93,64,33,30.19,30.07,8,2,8,0.04
2013-8-16,72.7,58.6,45.1,57.0,45.3,40.5,92,66,33,30.28,30.16,8,1,8,0.04
2013-8-17,76.1,60.4,46.8,57.7,46.1,39.7,93,65,29,30.31,30.28,8,0,8,0.04
2013-8-18,74.8,61.1,50.0,64.1,48.5,42.1,93,68,32,30.34,30.19,6,0,6,0.04
2013-8-19,77.9,61.9,48.7,63.0,48.1,44.5,93,66,32,30.19,30.10,8,1,8,0.04
2013-8-20,79.9,64.4,50.2,62.3,50.6,46.0,92,66,32,30.22,30.13,6,1,6,0.04
2013-8-21,82.6,67.7,52.0,65.6,52.2,48.3,92,63,32,30.25,30.13,8,1,8,0.04
2013-8-22,81.0,67.5,57.4,64.8,58.2,50.5,92,75,40,30.13,29.96,11,1,11,0.39
2013-8-23,69.4,60.3,47.3,61.0,49.1,38.8,94,71,34,30.25,30.01,9,1,10,0.04
2013-8-24,74.7,57.6,46.8,62.0,44.6,36.1,93,68,25,30.40,30.25,6,1,6,0.04
2013-8-25,76.6,61.0,46.6,61.4,46.8,37.4,93,66,25,30.43,30.22,8,1,8,0.04
2013-8-26,75.0,66.2,60.3,65.1,59.6,52.8,91,80,61,30.22,30.01,8,1,8,0.31
2013-8-27,72.9,66.5,0.0,69.3,63.6,0.0,92,90,85,30.04,29.98,0,0,0,0.04
2013-8-28,82.2,69.5,62.1,72.3,59.0,50.0,92,74,34,30.04,29.96,7,0,7,0.04
2013-8-29,80.4,67.0,58.3,72.3,57.3,48.4,92,75,34,30.13,30.04,8,0,8,0.04
2013-8-30,82.2,68.4,57.6,69.8,57.1,48.7,92,72,33,30.10,29.90,9,1,9,0.04
2013-8-31,75.6,68.7,64.8,71.8,65.0,61.2,91,88,78,29.93,29.84,4,0,4,0.39
2013-9-1,82.2,70.2,62.6,68.8,61.0,52.4,91,75,37,29.96,29.90,5,0,5,0.00
2013-9-2,77.2,67.4,59.4,68.4,60.9,49.9,91,81,53,29.93,29.78,12,1,12,0.35
2013-9-3,63.9,60.1,56.3,61.0,56.7,53.7,92,88,81,29.96,29.84,8,2,8,0.39
2013-9-4,71.4,61.6,52.3,56.9,50.9,42.3,92,71,37,30.01,29.96,9,2,9,0.08
2013-9-5,61.3,52.5,36.9,55.3,37.7,25.7,90,61,33,30.25,29.98,13,1,13,0.00
2013-9-6,66.2,49.2,33.4,47.6,33.4,27.6,90,60,26,30.31,30.16,8,1,8,0.00
2013-9-7,66.6,57.0,47.7,47.4,40.8,35.0,81,57,33,30.16,29.96,9,2,9,0.00
2013-9-8,59.4,52.5,37.2,54.9,38.1,26.4,89,62,35,30.19,29.90,14,2,14,0.08
2013-9-9,68.7,48.8,34.2,50.0,35.7,29.6,90,66,27,30.25,30.10,6,1,6,0.00
2013-9-10,74.8,62.8,47.8,68.1,59.0,43.6,92,88,77,30.13,30.01,7,1,7,0.31
2013-9-11,88.5,73.8,66.7,74.8,64.7,54.2,90,76,34,30.13,30.07,8,3,8,0.43
2013-9-12,75.7,66.3,62.8,69.3,61.6,59.5,90,85,63,30.07,29.75,9,1,9,0.55
2013-9-13,63.0,53.3,46.0,60.0,49.6,43.3,92,87,71,29.98,29.75,10,1,10,0.12
2013-9-14,59.7,47.5,38.1,48.8,38.7,29.8,93,75,38,30.16,29.96,8,1,8,0.00
2013-9-15,63.3,51.2,37.8,50.8,41.0,32.5,90,70,40,30.19,30.10,9,2,9,0.04
2013-9-16,51.8,47.3,33.1,47.9,38.8,25.7,91,74,45,30.37,30.07,10,1,10,0.43
2013-9-17,63.5,44.0,30.9,44.6,31.1,25.8,92,66,28,30.49,30.37,6,0,6,0.00
2013-9-18,71.2,51.2,37.4,56.3,37.8,30.6,92,67,24,30.37,30.19,6,1,6,0.00
2013-9-19,75.6,54.7,40.3,60.3,42.3,36.1,92,69,28,30.22,30.10,5,1,5,0.00
2013-9-20,79.0,59.5,45.3,68.1,46.6,39.3,92,68,28,30.16,29.98,8,1,8,0.00
2013-9-21,69.3,64.1,56.7,56.2,47.2,37.9,84,56,35,29.87,29.69,126,4,126,0.35
2013-9-22,56.7,49.3,41.4,52.8,43.2,34.7,89,80,55,29.98,29.69,12,2,12,0.12
2013-9-23,48.4,42.6,37.9,38.5,32.2,27.7,87,68,48,30.13,29.98,10,2,10,0.00
2013-9-24,60.4,46.0,37.4,36.5,31.9,29.2,81,61,34,30.13,29.98,9,1,11,0.00
2013-9-25,65.8,48.2,34.2,49.8,36.1,30.7,91,67,35,30.07,29.98,9,1,9,0.00
2013-9-26,64.4,49.8,39.9,52.4,39.4,33.6,92,71,35,30.22,30.07,8,1,8,0.00
2013-9-27,62.6,47.9,38.8,52.3,40.4,33.4,92,77,46,30.34,30.22,6,0,6,0.00
2013-9-28,71.1,52.3,40.5,60.9,40.8,36.2,92,70,32,30.40,30.31,7,1,7,0.00
2013-9-29,72.3,52.3,40.3,61.4,39.2,32.9,92,67,25,30.31,30.10,9,1,9,0.00
2013-9-30,72.3,52.5,41.2,62.1,40.2,34.6,91,68,28,30.16,30.04,0,0,0,0.00
2013-10-1,70.2,54.0,41.0,61.6,42.4,37.0,91,69,35,30.07,29.98,5,2,5,0.00
2013-10-2,72.3,59.5,46.4,60.9,48.6,40.0,89,70,34,30.10,29.98,13,2,13,0.00
2013-10-3,70.3,52.1,37.8,54.5,38.2,33.8,90,64,28,30.19,30.10,6,1,6,0.00
2013-10-4,61.0,50.5,40.5,55.0,45.8,35.1,91,84,74,30.13,30.10,4,0,4,0.04
2013-10-5,57.9,55.3,53.2,55.0,52.5,50.1,91,90,88,30.16,30.13,6,0,6,0.00
2013-10-6,59.9,55.8,50.5,56.7,51.6,46.4,90,86,73,30.16,30.01,10,1,10,0.71
2013-10-7,70.3,59.0,48.4,58.7,51.3,40.5,89,77,50,30.01,29.69,17,4,17,1.10
2013-10-8,56.7,46.2,35.1,41.5,31.6,26.3,80,59,33,30.40,29.96,15,1,15,0.00
2013-10-9,65.3,44.9,32.5,53.0,32.6,28.3,93,68,26,30.46,30.37,5,0,5,0.00
2013-10-10,64.9,45.9,34.0,51.1,34.7,28.8,91,69,26,30.37,30.25,4,0,4,0.00
2013-10-11,70.7,48.5,35.8,51.3,34.6,28.6,91,65,22,30.25,30.16,5,0,5,0.00
2013-10-12,70.9,51.2,32.4,54.0,35.5,28.5,90,60,28,30.37,30.22,9,1,9,0.00
2013-10-13,70.0,53.8,39.2,54.0,40.3,34.9,90,64,32,30.40,30.31,8,1,8,0.00
2013-10-14,55.8,53.2,48.7,52.7,48.9,44.5,92,86,68,30.34,30.31,6,0,6,0.55
2013-10-15,63.9,53.3,46.2,59.1,47.6,43.2,93,82,50,30.34,30.10,8,0,8,0.00
2013-10-16,65.7,57.8,50.0,54.9,43.0,32.8,89,61,37,30.13,29.87,9,2,9,0.04
2013-10-17,57.9,52.8,46.8,52.7,46.2,39.3,87,79,52,29.93,29.72,9,2,9,0.51
2013-10-18,53.8,48.6,38.8,46.7,40.1,28.1,91,74,45,29.96,29.72,15,2,15,0.20
2013-10-19,58.1,46.1,33.6,48.6,34.5,29.4,90,67,39,29.96,29.69,10,3,10,0.20
2013-10-20,50.0,43.2,34.7,40.4,32.0,0.0,83,66,41,30.04,29.69,8,8,8,0.20
2013-10-21,61.5,48.9,35.4,43.2,32.6,27.6,90,59,29,30.07,29.90,8,8,8,0.20
2013-10-22,53.8,45.0,34.9,40.1,29.6,20.4,80,56,37,29.90,29.75,8,8,8,0.20
2013-10-23,44.1,37.1,30.4,32.6,27.9,22.6,83,70,46,29.81,29.72,8,8,8,0.20
2013-10-24,38.7,33.8,27.5,33.0,29.4,23.6,88,84,77,29.93,29.72,8,8,8,0.24
2013-10-25,38.8,33.3,27.1,30.4,25.2,19.2,89,73,51,30.13,29.93,8,8,8,0.20
2013-10-26,36.3,34.0,27.5,33.2,30.5,21.5,89,87,78,30.10,29.81,8,8,8,0.24
2013-10-27,40.3,37.1,32.2,35.0,28.2,17.8,88,72,45,30.04,29.78,8,8,8,0.20
2013-10-28,42.4,34.4,22.5,37.0,22.8,9.1,85,64,39,30.37,30.01,8,8,8,0.20
2013-10-29,40.6,26.6,17.4,25.3,12.8,5.3,81,58,30,30.46,30.31,8,8,8,0.20
2013-10-30,41.4,33.1,24.8,33.3,25.3,12.1,82,73,58,30.31,30.19,8,8,8,0.20
2013-10-31,56.5,42.8,29.3,53.6,39.8,24.7,92,89,82,30.22,29.66,8,8,8,0.75
2013-11-1,60.6,55.6,47.7,56.7,44.4,31.7,90,69,35,29.72,29.36,8,8,8,1.06
2013-11-2,47.7,42.1,32.9,41.3,36.6,30.0,90,81,69,29.90,29.66,8,5,8,0.24
2013-11-3,32.9,27.1,18.0,30.0,14.6,4.7,89,61,39,30.46,29.90,8,4,8,0.20
2013-11-4,35.4,24.8,14.9,19.1,9.7,6.6,78,54,34,30.60,30.46,8,0,8,0.20
2013-11-5,50.0,34.0,21.9,24.8,17.8,8.1,76,52,36,30.55,30.43,10,1,10,0.20
2013-11-6,59.2,45.7,28.6,46.0,32.3,22.3,88,63,35,30.43,29.90,13,4,13,0.20
2013-11-7,51.8,41.7,30.4,49.1,36.7,20.5,91,82,65,29.93,29.78,19,3,19,0.71
2013-11-8,36.3,31.4,30.2,27.1,19.9,12.4,77,63,47,30.13,29.87,10,2,10,0.00
2013-11-9,36.9,31.6,22.1,26.7,17.8,10.8,77,57,46,30.19,29.87,6,1,6,0.00
2013-11-10,39.7,35.6,30.7,36.2,31.5,25.3,88,85,77,29.98,29.75,11,3,11,0.28
2013-11-11,37.4,32.8,26.2,30.8,25.5,21.6,88,75,60,30.10,29.87,13,4,13,0.20
2013-11-12,26.1,20.7,17.1,21.9,12.4,4.5,84,70,57,30.25,29.96,15,2,15,0.00
2013-11-13,28.4,21.6,15.1,16.7,7.9,2.5,61,55,45,30.28,30.04,10,3,10,0.00
2013-11-14,39.2,30.7,26.1,24.3,17.0,12.1,75,57,47,30.07,30.01,10,3,10,0.00
2013-11-15,49.5,33.5,25.2,24.9,17.1,11.4,74,53,29,30.16,30.07,10,1,10,0.00
2013-11-16,54.3,35.3,26.1,34.3,22.6,16.9,80,62,30,30.28,30.16,9,1,9,0.00
2013-11-17,55.6,45.7,28.9,49.5,39.8,23.6,88,80,72,30.22,29.63,19,3,19,0.08
2013-11-18,56.1,44.0,32.4,50.7,35.1,22.1,84,71,50,29.72,29.45,20,6,20,0.75
2013-11-19,32.4,25.9,18.5,23.5,10.6,4.5,70,52,46,30.37,29.72,14,3,14,0.00
2013-11-20,35.4,20.8,11.3,14.7,6.5,0.8,73,54,36,30.55,30.37,5,0,5,0.00
2013-11-21,39.4,23.9,12.6,20.3,11.8,4.5,78,61,35,30.55,30.31,10,0,10,0.00
2013-11-22,40.5,35.2,31.3,38.0,29.6,18.3,92,81,56,30.31,29.87,10,1,10,0.59
2013-11-23,33.1,24.0,13.3,30.2,16.0,4.7,89,71,56,30.01,29.81,12,2,12,0.00
2013-11-24,15.4,9.4,2.7,5.2,-2.5,-14.1,68,58,46,30.22,29.87,13,3,13,0.00
2013-11-25,27.3,14.0,-5.4,9.5,-2.9,-20.9,56,46,41,30.31,30.07,11,2,11,0.00
2013-11-26,31.3,28.1,25.5,23.9,15.7,5.9,81,60,41,30.16,29.93,10,3,10,0.00
2013-11-27,34.2,30.6,19.2,32.3,28.0,15.2,93,90,81,29.93,29.45,11,2,11,1.54
2013-11-28,21.2,12.3,0.9,15.2,1.1,-15.5,84,62,44,30.37,29.63,9,2,9,0.00
2013-11-29,21.0,7.5,-2.0,7.3,-9.4,-18.3,64,45,41,30.66,30.37,5,0,5,0.00
2013-11-30,24.3,11.4,-6.3,10.6,-5.5,-22.1,62,46,40,30.66,30.22,10,1,10,0.00
2013-12-1,33.6,27.1,21.0,22.0,17.4,7.9,79,67,55,30.25,29.98,5,0,5,0.00
2013-12-2,36.0,29.1,21.7,31.7,24.8,17.7,88,84,79,29.98,29.87,0,0,0,0.00
2013-12-3,36.3,31.6,26.6,33.9,25.9,15.9,92,80,58,29.98,29.90,6,0,6,0.00
2013-12-4,36.7,26.9,18.0,23.1,16.3,9.8,79,65,47,30.10,29.98,6,0,6,0.04
2013-12-5,52.7,42.8,25.2,48.3,37.8,18.4,87,82,75,30.07,29.84,11,4,11,0.08
2013-12-6,42.1,32.1,27.3,34.7,24.5,17.1,85,74,64,30.13,29.93,10,2,10,0.24
2013-12-7,27.3,23.7,18.5,17.1,11.7,6.5,65,60,51,30.40,30.13,16,1,16,0.00
2013-12-8,23.5,20.4,16.2,11.3,7.7,4.9,67,57,48,30.49,30.37,6,0,6,0.00
2013-12-9,36.9,28.9,20.8,28.9,18.4,6.8,77,65,52,30.37,29.81,12,4,12,0.04
2013-12-10,31.5,22.5,15.3,21.1,8.3,1.2,66,54,44,29.93,29.78,12,3,12,0.00
2013-12-11,21.6,16.2,9.7,13.6,7.3,-0.8,73,67,56,30.10,29.93,10,1,10,0.00
2013-12-12,12.6,5.5,-10.7,4.7,-2.1,-17.7,70,70,70,30.19,29.87,13,3,13,0.00
2013-12-13,14.2,6.3,-13.7,5.9,-2.2,-22.1,70,67,65,30.31,29.84,8,1,8,0.00
2013-12-14,9.7,-2.2,-15.7,0.1,-11.1,-24.0,65,65,65,30.43,29.93,15,2,15,0.00
2013-12-15,23.5,17.6,9.7,18.3,11.5,0.3,81,77,65,29.93,29.54,15,2,15,0.00
2013-12-16,15.1,4.2,-14.4,10.0,-0.9,-19.0,80,79,78,30.10,29.63,10,1,10,0.00
2013-12-17,12.9,-2.0,-21.1,7.7,-6.9,-25.5,79,79,79,30.10,29.90,6,0,6,0.00
2013-12-18,27.3,18.9,7.9,21.7,13.2,2.7,79,78,75,29.98,29.87,5,0,5,0.00
2013-12-19,32.7,28.2,21.4,25.4,20.2,15.3,80,72,56,30.04,29.90,10,2,10,0.00
2013-12-20,41.7,35.3,30.2,39.8,32.1,24.2,93,88,78,30.04,29.87,8,1,8,0.59
2013-12-21,50.5,44.1,35.8,48.3,42.2,34.2,94,93,91,29.90,29.81,4,2,4,0.63
2013-12-22,56.1,44.5,36.3,53.2,42.3,34.8,94,92,89,29.98,29.69,10,1,10,0.63
2013-12-23,39.4,33.6,17.8,37.2,31.3,10.3,93,91,73,30.16,29.96,9,2,9,0.63
2013-12-24,20.8,13.1,0.5,11.6,3.8,-13.4,75,66,51,30.28,30.07,11,1,11,0.00
2013-12-25,18.1,7.5,-3.8,-0.1,-7.9,-17.4,51,49,44,30.40,30.25,8,1,8,0.00
2013-12-26,25.9,21.0,16.2,15.7,8.4,-1.9,70,58,43,30.25,30.01,8,2,8,0.00
2013-12-27,25.3,22.9,20.5,16.2,13.7,11.6,73,67,60,30.19,30.10,10,3,10,0.00
2013-12-28,34.9,31.0,22.5,29.9,24.1,14.3,84,75,62,30.10,29.98,9,3,9,0.00
2013-12-29,39.4,29.6,22.8,36.0,26.4,19.8,90,87,81,29.98,29.60,11,0,11,0.04
2013-12-30,34.7,14.7,-0.9,32.1,8.0,-8.6,90,74,69,30.13,29.63,13,3,13,0.00
2013-12-31,16.7,9.0,2.7,7.7,0.0,-5.2,69,66,61,30.10,29.87,8,1,8,0.00
2014-1-1,11.8,7.5,2.3,1.0,-3.2,-8.1,61,61,61,30.28,30.04,7,1,7,0.00
2014-1-2,7.7,2.6,-1.5,-2.9,-7.8,-11.6,61,61,61,30.25,29.84,8,2,8,0.00